Weather reports worldwide

Advertisment
Sete, France (7641): temperature & dewpoint: 19.09.2018 12:00:00 - 25.09.2018 12:00:00 (CEST)Sete, France (7641): wind speed & gusts: 19.09.2018 12:00:00 - 25.09.2018 12:00:00 (CEST)Sete, France (7641): wind direction: 19.09.2018 12:00:00 - 25.09.2018 12:00:00 (CEST)Sete, France (7641): reduced air pressure: 19.09.2018 12:00:00 - 25.09.2018 12:00:00 (CEST)Sete, France (7641): visibility: 19.09.2018 12:00:00 - 25.09.2018 12:00:00 (CEST)Sete, France (7641): precipitation: 19.09.2018 12:00:00 - 25.09.2018 12:00:00 (CEST)
Date & Time tt [°C] td [°C] ff [km/h] ff [kn] fx [km/h] fx [kn] dd ppp [hPa] vv [km] rr [mm]
25.09.2018 12:00:00 - - - - - - - - - -
25.09.2018 11:00:00 - - - - - - - - - -
25.09.2018 10:00:00 - - - - - - - - - -
25.09.2018 09:00:00 - - - - - - - - - -
25.09.2018 08:00:00 - - - - - - - - - -
25.09.2018 07:00:00 - - - - - - - - - -
25.09.2018 06:00:00 - - - - - - - - - -
25.09.2018 05:00:00 - - - - - - - - - -
25.09.2018 04:00:00 - - - - - - - - - -
25.09.2018 03:00:00 - - - - - - - - - -
25.09.2018 02:00:00 - - - - - - - - - -
25.09.2018 01:00:00 - - - - - - - - - -
25.09.2018 00:00:00 - - - - - - - - - -
24.09.2018 23:00:00 - - - - - - - - - -
24.09.2018 22:00:00 - - - - - - - - - -
24.09.2018 21:00:00 - - - - - - - - - -
24.09.2018 20:00:00 - - - - - - - - - -
24.09.2018 19:00:00 - - - - - - - - - -
24.09.2018 18:00:00 - - - - - - - - - -
24.09.2018 17:00:00 - - - - - - - - - -
24.09.2018 16:00:00 - - - - - - - - - -
24.09.2018 15:00:00 - - - - - - - - - -
24.09.2018 14:00:00 24,8 2,2 25 13 56 31 NNW 1022,0 25 0,0
24.09.2018 13:00:00 24,5 3,2 19 10 45 24 NNW 1023,2 - 0,0
24.09.2018 12:00:00 24,1 5,9 15 8 42 23 NNW 1023,6 - 0,0
24.09.2018 11:00:00 23,3 7,8 10 5 30 16 WNW 1023,5 - 0,0
24.09.2018 10:00:00 21,8 9,7 6 3 21 11 ENE 1023,0 - 0,0
24.09.2018 09:00:00 20,2 9,7 8 4 18 10 ENE 1022,4 - 0,0
24.09.2018 08:00:00 19,5 11,5 7 4 20 11 E 1021,9 20 0,0
24.09.2018 07:00:00 19,8 12,5 9 5 31 17 E 1021,5 - 0,0
24.09.2018 06:00:00 20,9 15,2 9 5 34 18 E 1021,0 - 0,0
24.09.2018 05:00:00 22,9 16,7 12 6 40 22 WNW 1019,9 20 0,0
24.09.2018 04:00:00 23,7 16,2 16 9 29 16 NW 1020,0 - 0,0
24.09.2018 03:00:00 24,0 16,0 9 5 30 16 NNW 1020,0 - 0,0
24.09.2018 02:00:00 24,8 16,0 13 7 33 18 WNW 1019,8 - 0,0
24.09.2018 01:00:00 25,6 15,0 20 11 35 19 NNW 1019,9 - 0,0
24.09.2018 00:00:00 25,9 15,3 6 3 30 16 NW 1019,8 - 0,0
23.09.2018 23:00:00 26,8 13,9 18 10 39 21 NW 1019,9 - 0,0
23.09.2018 22:00:00 27,7 13,2 15 8 36 19 NW 1019,4 - 0,0
23.09.2018 21:00:00 28,5 13,2 10 5 32 18 W 1018,9 - 0,0
23.09.2018 20:00:00 29,3 13,5 14 7 31 17 NW 1018,2 25 0,0
23.09.2018 19:00:00 30,5 13,3 12 6 36 20 WNW 1017,6 - 0,0
23.09.2018 18:00:00 31,6 12,9 11 6 36 19 NW 1017,2 - 0,0
23.09.2018 17:00:00 32,7 12,9 14 8 34 19 NNW 1017,1 - 0,0
23.09.2018 16:00:00 29,6 17,1 11 6 27 15 WSW 1017,5 - 0,0
23.09.2018 15:00:00 28,1 17,3 16 9 31 17 SSW 1018,3 - 0,0
23.09.2018 14:00:00 30,8 15,6 11 6 34 19 W 1019,1 25 0,0
23.09.2018 13:00:00 30,5 12,4 13 7 31 17 WNW 1019,9 - 0,0
23.09.2018 12:00:00 29,6 12,5 11 6 32 17 W 1020,5 - 0,0
23.09.2018 11:00:00 27,8 13,0 8 4 25 14 WNW 1021,1 25 0,0
23.09.2018 10:00:00 25,5 13,0 10 5 28 15 WNW 1021,2 - 0,0
23.09.2018 09:00:00 24,0 12,9 13 7 31 17 W 1020,9 - 0,0
23.09.2018 08:00:00 22,9 12,2 14 8 29 16 NW 1020,9 20 0,0
23.09.2018 07:00:00 22,5 11,6 9 5 40 21 NW 1021,0 - 0,0
23.09.2018 06:00:00 22,9 11,3 21 12 35 19 NW 1021,1 - 0,0
23.09.2018 05:00:00 22,5 9,6 14 7 34 19 WNW 1021,3 20 0,0
23.09.2018 04:00:00 23,0 7,9 21 12 34 19 NW 1021,3 - 0,0
23.09.2018 03:00:00 22,7 6,4 12 7 34 19 NW 1021,6 - 0,0
23.09.2018 02:00:00 23,3 6,1 18 10 35 19 NW 1021,8 - 0,0
23.09.2018 01:00:00 23,5 4,4 15 8 36 19 W 1022,1 - 0,0
23.09.2018 00:00:00 23,4 3,8 3 2 19 10 WSW 1022,1 - 0,0
22.09.2018 23:00:00 24,2 3,5 6 3 32 17 W 1021,5 - 0,0
22.09.2018 22:00:00 24,9 4,6 16 9 39 21 WNW 1020,9 - 0,0
22.09.2018 21:00:00 25,6 5,2 15 8 35 19 WNW 1020,8 - 0,0
22.09.2018 20:00:00 26,4 3,6 16 9 29 16 WSW 1019,8 25 0,0
22.09.2018 19:00:00 28,2 0,8 13 7 34 18 WNW 1019,1 - 0,0
22.09.2018 18:00:00 29,1 -3,2 16 8 31 17 NNW 1018,7 - 0,0
22.09.2018 17:00:00 26,5 13,9 13 7 27 14 SW 1019,0 25 0,0
22.09.2018 16:00:00 29,7 9,2 7 4 27 15 WSW 1019,5 - 0,0
22.09.2018 15:00:00 29,3 0,0 7 4 25 13 WSW 1020,0 - 0,0
22.09.2018 14:00:00 27,6 -5,5 10 6 34 18 NNW 1020,9 20 0,0
22.09.2018 13:00:00 27,5 -1,5 6 4 31 17 N 1021,4 - 0,0
22.09.2018 12:00:00 25,0 0,5 14 7 29 16 NNW 1021,7 - 0,0
22.09.2018 11:00:00 22,1 5,5 14 8 34 19 N 1022,4 20 0,0
22.09.2018 10:00:00 20,0 6,3 15 8 37 20 N 1022,4 - 0,0
22.09.2018 09:00:00 18,5 8,2 19 10 32 18 N 1022,2 - 0,0
22.09.2018 08:00:00 17,6 9,2 14 8 29 16 N 1022,0 20 0,0
22.09.2018 07:00:00 18,2 9,3 14 8 34 18 N 1021,5 - 0,0
22.09.2018 06:00:00 19,3 7,1 13 7 46 25 N 1021,0 - 0,0
22.09.2018 05:00:00 20,7 4,7 18 10 34 19 WNW 1020,7 - 0,0
22.09.2018 04:00:00 21,2 4,7 9 5 24 13 NW 1020,8 - 0,0
22.09.2018 03:00:00 21,5 9,1 6 4 34 18 NNW 1020,7 - 0,0
22.09.2018 02:00:00 22,4 13,5 16 9 33 18 NNW 1020,5 - 0,0
22.09.2018 01:00:00 23,0 15,1 7 4 29 16 NW 1020,5 - 0,0
22.09.2018 00:00:00 23,8 15,0 14 7 36 19 NW 1020,3 - 0,0
21.09.2018 23:00:00 24,6 13,8 6 3 34 19 NNW 1019,8 - 0,0
21.09.2018 22:00:00 25,1 13,3 16 8 35 19 NW 1019,3 - 0,0
21.09.2018 21:00:00 25,7 12,9 14 8 30 16 WNW 1019,0 - 0,0
21.09.2018 20:00:00 26,4 13,2 11 6 34 18 WNW 1017,9 18 0,0
21.09.2018 19:00:00 27,8 12,2 11 6 35 19 NW 1017,3 - 0,0
21.09.2018 18:00:00 29,1 11,2 11 6 36 19 NNW 1015,8 - 0,0
21.09.2018 17:00:00 30,7 11,1 16 9 34 19 NNW 1015,5 15 0,0
21.09.2018 16:00:00 29,0 - 14 7 30 16 SSW - - 0,0
21.09.2018 15:00:00 29,5 - 14 8 31 17 SW - - 0,0
21.09.2018 14:00:00 26,5 - 13 7 24 13 SSW - 15 0,0
21.09.2018 13:00:00 27,2 - 12 6 22 12 S - - 0,0
21.09.2018 12:00:00 26,2 17,8 6 4 25 13 WSW 1017,5 - 0,0
21.09.2018 11:00:00 22,9 18,9 13 7 25 13 W 1017,7 - 0,0
21.09.2018 10:00:00 20,7 20,2 10 5 19 10 N 1017,6 - 0,0
21.09.2018 09:00:00 19,6 19,3 14 8 21 12 NNW 1017,4 - 0,0
21.09.2018 08:00:00 19,6 19,3 13 7 20 11 NNW 1016,8 0,1 0,0
21.09.2018 07:00:00 20,4 20,1 14 7 26 14 N 1015,9 - 0,0
21.09.2018 06:00:00 20,0 19,3 16 9 24 13 NNE 1015,6 - 0,0
21.09.2018 05:00:00 20,9 19,4 16 8 23 13 NNE 1015,8 - 0,0
21.09.2018 04:00:00 21,4 19,9 11 6 16 9 NNE 1016,0 - 0,0
21.09.2018 03:00:00 21,8 19,9 8 5 13 7 NNE 1016,0 - 0,0
21.09.2018 02:00:00 22,1 20,2 7 4 11 6 N 1016,5 - 0,0
21.09.2018 01:00:00 22,8 21,1 3 2 9 5 ENE 1016,7 - 0,0
21.09.2018 00:00:00 22,7 17,6 3 2 6 3 E 1016,8 - 0,0
20.09.2018 23:00:00 23,4 16,9 2 1 17 9 WSW 1016,8 - 0,0
20.09.2018 22:00:00 23,9 18,1 13 7 24 13 WSW 1016,7 - 0,0
20.09.2018 21:00:00 24,5 17,5 15 8 29 16 SW 1016,3 - 0,0
20.09.2018 20:00:00 25,1 15,4 17 9 27 14 SSW 1015,8 20 0,0
20.09.2018 19:00:00 25,6 15,9 17 9 27 15 SSW 1015,9 - 0,0
20.09.2018 18:00:00 26,2 16,4 18 10 28 15 SSW 1015,9 - 0,0
20.09.2018 17:00:00 26,7 18,8 16 9 31 17 SSW 1016,3 20 0,0
20.09.2018 16:00:00 27,5 18,8 16 9 28 15 SSW 1016,7 - 0,0
20.09.2018 15:00:00 27,7 16,9 16 9 24 13 SSW 1017,2 - 0,0
20.09.2018 14:00:00 27,9 15,2 14 8 22 12 SSW 1017,8 20 0,0
20.09.2018 13:00:00 27,8 15,8 9 5 19 10 SW 1018,4 - 0,0
20.09.2018 12:00:00 27,6 14,6 9 5 17 9 S 1019,0 - 0,0
20.09.2018 11:00:00 27,0 14,1 8 4 14 8 S 1019,3 15 0,0
20.09.2018 10:00:00 27,1 15,1 4 2 7 4 SSE 1019,3 - 0,0
20.09.2018 09:00:00 25,4 15,1 0 0 13 7 N 1019,2 - 0,0
20.09.2018 08:00:00 22,1 15,2 5 3 16 9 N 1019,0 20 0,0
20.09.2018 07:00:00 21,4 15,7 11 6 18 10 N 1018,8 - 0,0
20.09.2018 06:00:00 21,9 16,2 9 5 18 10 N 1018,7 - 0,0
20.09.2018 05:00:00 22,8 16,1 13 7 19 11 NNE 1018,5 15 0,0
20.09.2018 04:00:00 22,9 15,5 8 4 21 11 N 1018,5 - 0,0
20.09.2018 03:00:00 24,2 14,6 10 6 23 12 NW 1018,7 - 0,0
20.09.2018 02:00:00 23,3 16,8 16 9 25 13 W 1019,0 - 0,0
20.09.2018 01:00:00 22,8 18,1 16 8 25 14 W 1019,2 - 0,0
20.09.2018 00:00:00 22,6 18,8 13 7 24 13 W 1019,5 - 0,0
19.09.2018 23:00:00 22,6 18,8 16 9 27 15 WSW 1019,5 - 0,0
19.09.2018 22:00:00 22,7 19,3 17 9 29 16 WSW 1019,6 - 0,0
19.09.2018 21:00:00 23,3 19,7 16 9 25 14 WSW 1019,3 - 0,0
19.09.2018 20:00:00 23,6 18,3 17 9 25 13 WSW 1018,9 15 0,0
19.09.2018 19:00:00 24,3 18,7 14 8 24 13 SW 1018,7 - 0,0
19.09.2018 18:00:00 24,9 19,7 14 8 23 12 SW 1018,8 - 0,0
19.09.2018 17:00:00 25,6 18,8 14 7 23 13 SSW 1018,8 15 0,0
19.09.2018 16:00:00 25,7 20,5 13 7 22 12 SSW 1019,3 - 0,0
19.09.2018 15:00:00 26,0 19,2 11 6 21 11 SSW 1019,6 - 0,0
19.09.2018 14:00:00 25,2 20,0 12 6 22 12 SSW 1020,3 15 0,0
19.09.2018 13:00:00 25,0 19,6 12 7 21 11 SSW 1020,7 - 0,0
19.09.2018 12:00:00 25,6 19,9 9 5 16 9 S 1020,9 - 0,0

tt = temperature
td = dewpoint
ff = wind speed
fx = gusts
dd = wind direction
ppp = reduced air pressure
vv = visibility
rr = precipitation

Next stations